[keps] orb06299.amsat
Ray Hoad
r.hoad at att.net
Thu Oct 26 21:19:07 PDT 2006
SB KEPS @ AMSAT $ORB06299.O
Orbital Elements 06299.OSCAR
HR AMSAT ORBITAL ELEMENTS FOR OSCAR SATELLITES
FROM WA5QGD FORT WORTH,TX October 26, 2006
Send SUBSCRIBE KEPS/UNSUBSCRIBE KEPS to majordomo at amsat.org only
BID: ORB06299.O
TO ALL RADIO AMATEURS BT
Satellite: AO-07
Catalog number: 07530
Epoch time: 06298.74993483
Element set: 712
Inclination: 101.5532 deg
RA of node: 338.3449 deg
Eccentricity: 0.0011954
Arg of perigee: 352.9343 deg
Mean anomaly: 007.1558 deg
Mean motion: 12.53571561 rev/day
Decay rate: -2.8e-07 rev/day^2
Epoch rev: 46174
Checksum: 310
Satellite: UO-11
Catalog number: 14781
Epoch time: 06298.64886434
Element set: 208
Inclination: 098.2057 deg
RA of node: 311.6360 deg
Eccentricity: 0.0008648
Arg of perigee: 201.0159 deg
Mean anomaly: 159.0682 deg
Mean motion: 14.79472669 rev/day
Decay rate: -1.19e-06 rev/day^2
Epoch rev: 21505
Checksum: 317
Satellite: RS-10/11
Catalog number: 18129
Epoch time: 06299.81701050
Element set: 127
Inclination: 082.9227 deg
RA of node: 230.7717 deg
Eccentricity: 0.0013358
Arg of perigee: 084.8852 deg
Mean anomaly: 275.3824 deg
Mean motion: 13.72779636 rev/day
Decay rate: 2.2e-07 rev/day^2
Epoch rev: 96921
Checksum: 318
Satellite: RS-15
Catalog number: 23439
Epoch time: 06298.74767387
Element set: 0995
Inclination: 064.8226 deg
RA of node: 026.0649 deg
Eccentricity: 0.0166070
Arg of perigee: 231.4741 deg
Mean anomaly: 127.1194 deg
Mean motion: 11.27551874 rev/day
Decay rate: -3.9e-07 rev/day^2
Epoch rev: 48726
Checksum: 338
Satellite: FO-29
Catalog number: 24278
Epoch time: 06298.91983671
Element set: 0350
Inclination: 098.5207 deg
RA of node: 285.4122 deg
Eccentricity: 0.0350685
Arg of perigee: 330.7730 deg
Mean anomaly: 027.4182 deg
Mean motion: 13.52924506 rev/day
Decay rate: -1.2e-07 rev/day^2
Epoch rev: 50322
Checksum: 304
Satellite: SO-33
Catalog number: 25509
Epoch time: 06299.65305840
Element set: 776
Inclination: 031.4278 deg
RA of node: 106.0751 deg
Eccentricity: 0.0354626
Arg of perigee: 185.6797 deg
Mean anomaly: 173.9719 deg
Mean motion: 14.28128579 rev/day
Decay rate: 9.5e-07 rev/day^2
Epoch rev: 41784
Checksum: 351
Satellite: VO-52
Catalog number: 28650
Epoch time: 06298.77438942
Element set: 0463
Inclination: 097.8602 deg
RA of node: 009.4087 deg
Eccentricity: 0.0026239
Arg of perigee: 297.7757 deg
Mean anomaly: 062.0801 deg
Mean motion: 14.81194003 rev/day
Decay rate: 5.53e-06 rev/day^2
Epoch rev: 07971
Checksum: 331
/EX
SB KEPS @ AMSAT $ORB06299.D
Orbital Elements 06299.MICROS
HR AMSAT ORBITAL ELEMENTS FOR THE MICROSATS
FROM WA5QGD FORT WORTH,TX October 26, 2006
Send SUBSCRIBE KEPS/UNSUBSCRIBE KEPS to majordomo at amsat.org only
BID: ORB06299.D
TO ALL RADIO AMATEURS BT
Satellite: AO-16
Catalog number: 20439
Epoch time: 06298.62654620
Element set: 0878
Inclination: 098.1891 deg
RA of node: 301.2522 deg
Eccentricity: 0.0010968
Arg of perigee: 160.9599 deg
Mean anomaly: 199.1987 deg
Mean motion: 14.31736856 rev/day
Decay rate: 3.0e-08 rev/day^2
Epoch rev: 87498
Checksum: 357
Satellite: LO-19
Catalog number: 20442
Epoch time: 06299.47307853
Element set: 811
Inclination: 098.1853 deg
RA of node: 311.5726 deg
Eccentricity: 0.0012116
Arg of perigee: 158.5562 deg
Mean anomaly: 201.6155 deg
Mean motion: 14.31979551 rev/day
Decay rate: 4.2e-07 rev/day^2
Epoch rev: 87524
Checksum: 305
Satellite: AO-27
Catalog number: 22825
Epoch time: 06298.80638714
Element set: 528
Inclination: 098.2995 deg
RA of node: 274.3272 deg
Eccentricity: 0.0007484
Arg of perigee: 233.8557 deg
Mean anomaly: 126.1915 deg
Mean motion: 14.29187728 rev/day
Decay rate: 1.12e-06 rev/day^2
Epoch rev: 68201
Checksum: 335
Satellite: IO-26
Catalog number: 22826
Epoch time: 06298.89391076
Element set: 0222
Inclination: 098.2934 deg
RA of node: 275.5750 deg
Eccentricity: 0.0008142
Arg of perigee: 230.4346 deg
Mean anomaly: 129.6120 deg
Mean motion: 14.29431861 rev/day
Decay rate: 1.6e-07 rev/day^2
Epoch rev: 68210
Checksum: 300
Satellite: PO-28
Catalog number: 22829
Epoch time: 06299.45396834
Element set: 505
Inclination: 098.2844 deg
RA of node: 277.3038 deg
Eccentricity: 0.0009387
Arg of perigee: 200.8354 deg
Mean anomaly: 159.2449 deg
Mean motion: 14.30128232 rev/day
Decay rate: 2.5e-07 rev/day^2
Epoch rev: 68240
Checksum: 323
Satellite: GO-32
Catalog number: 25397
Epoch time: 06298.68237994
Element set: 141
Inclination: 098.4513 deg
RA of node: 350.7215 deg
Eccentricity: 0.0001301
Arg of perigee: 156.5355 deg
Mean anomaly: 203.5888 deg
Mean motion: 14.23113327 rev/day
Decay rate: 7.3e-07 rev/day^2
Epoch rev: 43080
Checksum: 295
Satellite: MO-46
Catalog number: 26548
Epoch time: 06299.20181415
Element set: 630
Inclination: 064.5573 deg
RA of node: 186.4919 deg
Eccentricity: 0.0040139
Arg of perigee: 228.8309 deg
Mean anomaly: 130.9330 deg
Mean motion: 14.83036836 rev/day
Decay rate: 6.4e-07 rev/day^2
Epoch rev: 32883
Checksum: 315
Satellite: NO-44
Catalog number: 26931
Epoch time: 06298.55999165
Element set: 432
Inclination: 067.0554 deg
RA of node: 031.8638 deg
Eccentricity: 0.0004914
Arg of perigee: 259.3053 deg
Mean anomaly: 100.7510 deg
Mean motion: 14.29458312 rev/day
Decay rate: 2.74e-06 rev/day^2
Epoch rev: 26456
Checksum: 312
Satellite: SO-50
Catalog number: 27607
Epoch time: 06298.81702176
Element set: 0155
Inclination: 064.5573 deg
RA of node: 076.5520 deg
Eccentricity: 0.0034967
Arg of perigee: 091.4042 deg
Mean anomaly: 269.1053 deg
Mean motion: 14.71185345 rev/day
Decay rate: 8.5e-07 rev/day^2
Epoch rev: 20664
Checksum: 306
Satellite: CO-55
Catalog number: 27844
Epoch time: 06298.61686038
Element set: 879
Inclination: 098.7225 deg
RA of node: 305.1229 deg
Eccentricity: 0.0010642
Arg of perigee: 049.8238 deg
Mean anomaly: 310.3870 deg
Mean motion: 14.20465243 rev/day
Decay rate: 7.8e-07 rev/day^2
Epoch rev: 17217
Checksum: 321
Satellite: CO-57
Catalog number: 27848
Epoch time: 06298.53757161
Element set: 0845
Inclination: 098.7211 deg
RA of node: 304.3334 deg
Eccentricity: 0.0010542
Arg of perigee: 052.6335 deg
Mean anomaly: 307.5799 deg
Mean motion: 14.20290891 rev/day
Decay rate: 6.4e-07 rev/day^2
Epoch rev: 17214
Checksum: 314
Satellite: AO-51
Catalog number: 28375
Epoch time: 06298.66053572
Element set: 0662
Inclination: 098.1484 deg
RA of node: 344.6437 deg
Eccentricity: 0.0083570
Arg of perigee: 172.2789 deg
Mean anomaly: 187.9712 deg
Mean motion: 14.40538154 rev/day
Decay rate: 2.5e-07 rev/day^2
Epoch rev: 12195
Checksum: 334
Satellite: CO-56
Catalog number: 28941
Epoch time: 06298.63159181
Element set: 0237
Inclination: 098.1652 deg
RA of node: 330.0053 deg
Eccentricity: 0.0263839
Arg of perigee: 017.5958 deg
Mean anomaly: 343.4050 deg
Mean motion: 15.29495696 rev/day
Decay rate: 2.5366e-04 rev/day^2
Epoch rev: 03745
Checksum: 341
/EX
SB KEPS @ AMSAT $ORB06299.W
Orbital Elements 06299.WEATHER
HR AMSAT ORBITAL ELEMENTS FOR WEATHER SATELLITES
FROM WA5QGD FORT WORTH,TX October 26, 2006
Send SUBSCRIBE KEPS/UNSUBSCRIBE KEPS to majordomo at amsat.org only
BID: ORB06299.W
TO ALL RADIO AMATEURS BT
Satellite: NOAA-10
Catalog number: 16969
Epoch time: 06299.09498071
Element set: 398
Inclination: 098.7577 deg
RA of node: 311.0049 deg
Eccentricity: 0.0012999
Arg of perigee: 127.3847 deg
Mean anomaly: 232.8517 deg
Mean motion: 14.27306449 rev/day
Decay rate: -7.8e-07 rev/day^2
Epoch rev: 4583
Checksum: 354
Satellite: NOAA-11
Catalog number: 19531
Epoch time: 06299.19271834
Element set: 350
Inclination: 098.8241 deg
RA of node: 026.1697 deg
Eccentricity: 0.0011323
Arg of perigee: 340.2263 deg
Mean anomaly: 019.8468 deg
Mean motion: 14.14821482 rev/day
Decay rate: -1.33e-06 rev/day^2
Epoch rev: 93306
Checksum: 293
Satellite: NOAA-12
Catalog number: 21263
Epoch time: 06299.22140555
Element set: 844
Inclination: 098.7411 deg
RA of node: 292.0218 deg
Eccentricity: 0.0013599
Arg of perigee: 067.7915 deg
Mean anomaly: 292.4712 deg
Mean motion: 14.25512335 rev/day
Decay rate: 1.56e-06 rev/day^2
Epoch rev: 80291
Checksum: 299
Satellite: MET-3/5
Catalog number: 21655
Epoch time: 06298.95801256
Element set: 0242
Inclination: 082.5573 deg
RA of node: 168.4233 deg
Eccentricity: 0.0014331
Arg of perigee: 073.2283 deg
Mean anomaly: 287.0411 deg
Mean motion: 13.17008300 rev/day
Decay rate: 5.1e-07 rev/day^2
Epoch rev: 73057
Checksum: 275
Satellite: MET-2/21
Catalog number: 22782
Epoch time: 06298.92327059
Element set: 0652
Inclination: 082.5494 deg
RA of node: 227.7270 deg
Eccentricity: 0.0022219
Arg of perigee: 169.3893 deg
Mean anomaly: 190.7741 deg
Mean motion: 13.83609045 rev/day
Decay rate: -5.6e-07 rev/day^2
Epoch rev: 66412
Checksum: 325
Satellite: OKEAN-4
Catalog number: 23317
Epoch time: 06298.76392272
Element set: 86
Inclination: 082.5398 deg
RA of node: 155.2266 deg
Eccentricity: 0.0021273
Arg of perigee: 308.2029 deg
Mean anomaly: 051.7251 deg
Mean motion: 14.82412232 rev/day
Decay rate: 5.5e-07 rev/day^2
Epoch rev: 64932
Checksum: 293
Satellite: NOAA-14
Catalog number: 23455
Epoch time: 06299.30738820
Element set: 343
Inclination: 099.0231 deg
RA of node: 358.8814 deg
Eccentricity: 0.0009835
Arg of perigee: 044.2904 deg
Mean anomaly: 315.9098 deg
Mean motion: 14.13672374 rev/day
Decay rate: 1.14e-06 rev/day^2
Epoch rev: 60959
Checksum: 318
Satellite: SICH-1
Catalog number: 23657
Epoch time: 06298.77918473
Element set: 0890
Inclination: 082.5254 deg
RA of node: 296.1045 deg
Eccentricity: 0.0022448
Arg of perigee: 295.9209 deg
Mean anomaly: 063.9716 deg
Mean motion: 14.81403697 rev/day
Decay rate: 3.34e-06 rev/day^2
Epoch rev: 60132
Checksum: 328
Satellite: NOAA-15
Catalog number: 25338
Epoch time: 06299.22309541
Element set: 719
Inclination: 098.5229 deg
RA of node: 297.6465 deg
Eccentricity: 0.0010667
Arg of perigee: 356.9015 deg
Mean anomaly: 003.2089 deg
Mean motion: 14.24607642 rev/day
Decay rate: -3.3e-07 rev/day^2
Epoch rev: 43937
Checksum: 321
